Stations météo

réclame
Mon MeteoGroup
Lossiemouth, Grande-Bretagne (3068): Température de l'air & dewpoint: 15.01.2018 12:00:00 - 21.01.2018 12:00:00 (GMT)Lossiemouth, Grande-Bretagne (3068): Vitesse du vent & gusts: 15.01.2018 12:00:00 - 21.01.2018 12:00:00 (GMT)Lossiemouth, Grande-Bretagne (3068): Direction du vent: 15.01.2018 12:00:00 - 21.01.2018 12:00:00 (GMT)Lossiemouth, Grande-Bretagne (3068): reduced air pressure: 15.01.2018 12:00:00 - 21.01.2018 12:00:00 (GMT)Lossiemouth, Grande-Bretagne (3068): visibility: 15.01.2018 12:00:00 - 21.01.2018 12:00:00 (GMT)Lossiemouth, Grande-Bretagne (3068): Quantités de précipitations: 15.01.2018 12:00:00 - 21.01.2018 12:00:00 (GMT)
Date & Time tt [°C] td [°C] ff [km/h] ff [knt] fx [km/h] fx [knt] dd ppp [hPa] vv [km] rr [mm]
21.01.2018 12:00:00 2,1 -2,4 26 14 - - SSE 1005,1 50 0,0
21.01.2018 11:00:00 1,0 -3,4 15 8 - - ESE 1006,8 50 0,0
21.01.2018 10:00:00 -0,2 -3,9 18 10 - - ESE 1008,0 50 0,0
21.01.2018 09:00:00 -1,8 -4,4 16 9 - - SE 1009,0 50 0,0
21.01.2018 08:00:00 -3,7 -5,4 8 4 - - SE 1009,4 50 0,0
21.01.2018 07:00:00 -3,2 -5,2 9 5 - - SE 1009,4 45 0,0
21.01.2018 06:00:00 -3,0 -4,9 8 4 - - SE 1010,3 45 0,0
21.01.2018 05:00:00 -4,7 -5,3 5 3 - - S 1010,8 40 0,0
21.01.2018 04:00:00 -3,9 -5,1 9 5 - - S 1010,6 50 0,0
21.01.2018 03:00:00 -3,3 -4,6 8 4 - - SW 1010,5 45 0,0
21.01.2018 02:00:00 -2,7 -4,5 11 6 - - SW 1010,4 50 0,0
21.01.2018 01:00:00 -2,5 -4,2 13 7 - - WSW 1010,1 45 0,0
21.01.2018 00:00:00 -2,4 -4,0 18 10 - - WSW 1009,5 45 0,0
20.01.2018 23:00:00 -2,3 -3,8 16 9 - - WSW 1009,1 45 0,0
20.01.2018 22:00:00 -0,8 -2,9 18 10 - - W 1008,3 40 0,0
20.01.2018 21:00:00 0,2 -2,3 24 13 - - W 1007,7 40 0,0
20.01.2018 20:00:00 1,0 -1,5 22 12 - - WNW 1006,5 40 0,0
20.01.2018 19:00:00 0,6 -0,4 9 5 - - WSW 1005,9 50 0,0
20.01.2018 18:00:00 1,5 -0,9 24 13 - - WNW 1004,6 50 0,0
20.01.2018 17:00:00 1,0 -0,7 22 12 - - WNW 1003,4 50 0,0
20.01.2018 16:00:00 1,7 -0,9 18 10 - - W 1002,5 50 0,0
20.01.2018 15:00:00 2,2 -1,4 18 10 - - W 1001,5 50 0,0
20.01.2018 14:00:00 2,2 -1,2 16 9 - - W 1000,4 50 0,0
20.01.2018 13:00:00 1,9 -3,5 16 9 - - W 999,7 50 0,0
20.01.2018 12:00:00 0,9 -2,8 21 11 - - SW 999,2 60 0,0
20.01.2018 11:00:00 0,4 -3,0 16 9 - - WSW 998,9 50 0,0
20.01.2018 10:00:00 -0,5 -3,1 13 7 - - WSW 998,6 50 0,0
20.01.2018 09:00:00 -1,4 -3,5 21 11 - - WSW 997,8 50 0,0
20.01.2018 08:00:00 -2,1 -3,6 18 10 - - WSW 997,0 50 0,0
20.01.2018 07:00:00 -1,7 -3,3 21 11 - - WSW 996,7 70 0,0
20.01.2018 06:00:00 -1,9 -3,2 16 9 - - WSW 996,6 70 0,0
20.01.2018 05:00:00 -2,2 -3,3 16 9 - - WSW 996,2 70 0,0
20.01.2018 04:00:00 -1,5 -2,8 21 11 - - WSW 996,3 70 0,0
20.01.2018 03:00:00 -1,0 -2,9 16 9 - - WSW 996,4 50 0,0
20.01.2018 02:00:00 -0,8 -3,3 13 7 - - SW 996,4 60 0,0
20.01.2018 01:00:00 -1,4 -3,5 15 8 - - WSW 996,4 60 0,0
20.01.2018 00:00:00 -2,7 -4,4 16 9 - - WSW 996,3 60 0,0
19.01.2018 23:00:00 -0,2 -4,1 15 8 - - SW 996,3 60 0,0
19.01.2018 22:00:00 -1,8 -4,2 5 3 - - S 996,4 60 0,0
19.01.2018 21:00:00 -0,1 -3,1 24 13 - - WSW 996,1 60 0,0
19.01.2018 20:00:00 -0,5 -3,1 15 8 - - SW 996,1 75 0,0
19.01.2018 19:00:00 -0,4 -2,7 24 13 - - WSW 996,0 50 0,0
19.01.2018 18:00:00 -1,4 -4,1 16 9 - - WSW 995,8 50 0,0
19.01.2018 17:00:00 -0,2 -2,4 16 9 - - WSW 995,5 45 0,0
19.01.2018 16:00:00 0,7 -2,0 15 8 - - SW 995,6 50 0,0
19.01.2018 15:00:00 1,9 -2,0 24 13 - - WSW 995,3 50 0,0
19.01.2018 14:00:00 2,5 -2,0 18 10 - - WSW 995,3 50 0,0
19.01.2018 13:00:00 1,2 -1,7 16 9 - - WSW 995,4 60 0,0
19.01.2018 12:00:00 1,8 -1,8 29 16 - - SW 995,5 50 0,0
19.01.2018 11:00:00 1,5 -2,0 16 9 - - WSW 995,5 50 0,0
19.01.2018 10:00:00 -0,3 -4,1 21 11 - - SW 995,3 10 0,0
19.01.2018 09:00:00 -1,5 - 18 10 - - SW 995,3 10 0,0
19.01.2018 08:00:00 -1,5 -2,9 18 10 - - SW 995,1 10 0,0
19.01.2018 07:00:00 0,4 -1,9 18 10 - - WSW 995,5 10 0,0
19.01.2018 06:00:00 0,3 -2,3 28 15 - - WSW 995,1 50 0,0
19.01.2018 05:00:00 -0,7 -3,2 13 7 - - W 995,2 10 0,0
19.01.2018 04:00:00 -1,4 -3,0 9 5 - - S 995,4 10 0,0
19.01.2018 03:00:00 0,5 -1,5 21 11 - - WSW 995,4 10 0,0
19.01.2018 02:00:00 0,4 -2,6 21 11 - - WSW 995,7 10 0,0
19.01.2018 01:00:00 0,1 -2,5 24 13 - - WSW 995,7 10 0,0
19.01.2018 00:00:00 0,7 -1,7 16 9 - - SSW 995,4 10 0,0
18.01.2018 23:00:00 0,3 -2,5 16 9 - - SW 995,6 10 0,0
18.01.2018 22:00:00 -0,6 -3,3 15 8 - - SW 995,7 10 0,0
18.01.2018 21:00:00 -1,5 -3,4 13 7 - - WSW 995,9 10 0,0
18.01.2018 20:00:00 0,3 -3,1 16 9 - - WSW 995,4 10 0,0
18.01.2018 19:00:00 0,2 -0,6 18 10 - - WSW 995,2 10 0,0
18.01.2018 18:00:00 0,6 -2,1 22 12 - - WSW 994,9 10 0,0
18.01.2018 17:00:00 1,2 -1,2 21 11 - - WSW 994,5 10 0,0
18.01.2018 16:00:00 0,9 -1,0 15 8 - - WSW 993,9 10 0,0
18.01.2018 15:00:00 2,1 -0,9 18 10 - - WSW 993,6 10 0,0
18.01.2018 14:00:00 3,3 -0,2 16 9 - - WSW 993,2 10 0,0
18.01.2018 13:00:00 3,2 -0,9 22 12 - - WSW 992,8 10 0,0
18.01.2018 12:00:00 2,3 -0,9 22 12 - - WSW 992,6 10 0,0
18.01.2018 11:00:00 1,7 -0,9 22 12 - - WSW 992,2 10 0,0
18.01.2018 10:00:00 0,8 -2,1 21 11 - - WSW 991,7 10 0,0
18.01.2018 09:00:00 -0,2 -1,9 18 10 - - WSW 991,2 10 0,0
18.01.2018 08:00:00 -1,5 -2,6 8 4 - - SW 990,9 10 0,0
18.01.2018 07:00:00 -0,8 -1,6 21 11 - - SW 989,9 10 0,0
18.01.2018 06:00:00 0,6 -1,0 22 12 - - WSW 989,6 8 0,0
18.01.2018 05:00:00 0,0 -2,9 18 10 - - WSW 989,1 10 0,0
18.01.2018 04:00:00 0,0 -2,8 16 9 - - WSW 988,6 10 0,0
18.01.2018 03:00:00 -1,1 -3,4 15 8 - - WSW 988,5 10 0,0
18.01.2018 02:00:00 -1,7 -4,1 8 4 - - SW 988,5 10 0,0
18.01.2018 01:00:00 -1,6 -3,6 9 5 - - S 988,5 10 0,0
18.01.2018 00:00:00 -1,1 -3,6 15 8 - - WSW 988,7 10 0,0
17.01.2018 23:00:00 -1,3 -2,9 16 9 - - WSW 988,7 10 0,0
17.01.2018 22:00:00 -0,7 -2,7 13 7 - - WSW 989,5 10 0,0
17.01.2018 21:00:00 0,5 -1,5 18 10 - - SW 990,3 10 0,0
17.01.2018 20:00:00 1,0 -0,9 28 15 - - WSW 990,6 10 0,0
17.01.2018 19:00:00 1,1 -0,7 21 11 - - WSW 991,1 10 0,0
17.01.2018 18:00:00 1,4 -0,4 22 12 - - WSW 991,7 10 0,0
17.01.2018 17:00:00 1,6 -0,3 29 16 - - WSW 991,6 10 0,0
17.01.2018 16:00:00 1,9 -0,7 34 18 - - WSW 991,3 10 0,0
17.01.2018 15:00:00 2,1 -0,7 35 19 48 26 WSW 990,9 10 0,0
17.01.2018 14:00:00 2,7 -0,6 35 19 54 29 WSW 990,4 10 0,0
17.01.2018 13:00:00 2,6 -0,6 41 22 54 29 WSW 990,1 10 0,0
17.01.2018 12:00:00 2,3 -1,0 35 19 52 28 WSW 989,7 10 0,0
17.01.2018 11:00:00 2,2 -1,1 26 14 - - WSW 989,6 30 0,0
17.01.2018 10:00:00 1,4 -0,9 34 18 48 26 WSW 988,5 10 0,0
17.01.2018 09:00:00 1,5 -1,2 34 18 46 25 WSW 988,2 10 0,0
17.01.2018 08:00:00 1,1 -1,0 29 16 50 27 WSW 987,1 10 0,0
17.01.2018 07:00:00 1,7 -0,7 28 15 50 27 W 986,4 10 0,0
17.01.2018 06:00:00 1,4 -1,0 34 18 48 26 WSW 984,9 10 0,0
17.01.2018 05:00:00 0,8 0,5 28 15 61 33 W 983,8 10 0,0
17.01.2018 04:00:00 0,0 -1,8 24 13 - - WSW 982,5 10 0,0
17.01.2018 03:00:00 -0,5 -3,4 28 15 - - WSW 981,5 10 0,0
17.01.2018 02:00:00 -1,6 -2,6 21 11 - - WSW 980,5 10 0,0
17.01.2018 01:00:00 -1,3 -1,8 24 13 - - WSW 980,2 10 0,0
17.01.2018 00:00:00 -0,8 -2,5 31 17 - - WSW 979,5 10 0,0
16.01.2018 23:00:00 -2,1 -4,0 16 9 - - WSW 978,5 10 0,0
16.01.2018 22:00:00 -0,9 -3,6 21 11 - - SW 977,8 10 0,0
16.01.2018 21:00:00 -1,3 -3,1 13 7 - - SSW 977,5 10 0,0
16.01.2018 20:00:00 -0,7 -2,8 22 12 - - SW 977,5 10 0,0
16.01.2018 19:00:00 -1,2 -3,1 21 11 - - WSW 977,5 10 0,0
16.01.2018 18:00:00 -0,9 -2,5 18 10 - - SW 976,6 10 0,0
16.01.2018 17:00:00 -0,3 -2,9 24 13 - - WSW 976,9 10 0,0
16.01.2018 16:00:00 0,3 -2,1 21 11 - - WSW 976,2 40 0,0
16.01.2018 15:00:00 1,1 -2,7 31 17 - - WSW 976,3 10 0,0
16.01.2018 14:00:00 1,1 -2,0 28 15 - - SW 976,3 10 0,0
16.01.2018 13:00:00 0,9 -0,9 22 12 - - SW 976,7 40 0,0
16.01.2018 12:00:00 0,7 -0,4 34 18 - - SW 976,8 10 0,0
16.01.2018 11:00:00 0,3 -0,2 16 9 46 25 WSW 977,3 20 0,0
16.01.2018 10:00:00 1,0 -1,9 22 12 - - SW 977,1 10 0,0
16.01.2018 09:00:00 0,0 -1,1 15 8 - - SW 977,5 3,0 0,0
16.01.2018 08:00:00 -0,1 -1,7 18 10 - - SSW 977,2 10 0,0
16.01.2018 07:00:00 0,4 -1,2 29 16 - - WSW 977,2 10 0,0
16.01.2018 06:00:00 -0,8 -2,4 13 7 - - SW 977,1 10 0,0
16.01.2018 05:00:00 -0,1 -1,0 22 12 - - SW 977,4 10 0,0
16.01.2018 04:00:00 -0,1 -1,8 21 11 - - WSW 977,9 2,5 0,0
16.01.2018 03:00:00 0,4 -1,9 16 9 - - WSW 977,9 10 0,0
16.01.2018 02:00:00 -0,2 -1,4 22 12 - - WSW 977,7 10 0,0
16.01.2018 01:00:00 0,7 -1,5 24 13 - - WSW 978,1 10 0,0
16.01.2018 00:00:00 0,2 -0,2 16 9 - - SW 978,2 10 0,0
15.01.2018 23:00:00 0,8 -0,4 15 8 - - W 978,4 1,2 0,0
15.01.2018 22:00:00 1,7 -1,2 28 15 - - WSW 978,2 10 0,0
15.01.2018 21:00:00 1,4 -1,5 15 8 - - W 978,3 10 0,0
15.01.2018 20:00:00 1,2 -1,6 15 8 - - WSW 978,4 10 0,0
15.01.2018 19:00:00 1,9 -1,0 15 8 - - SW 979,0 10 0,0
15.01.2018 18:00:00 2,2 -0,9 21 11 - - SW 978,9 10 0,0
15.01.2018 17:00:00 2,3 -0,5 22 12 - - WSW 979,5 10 0,0
15.01.2018 16:00:00 3,0 0,1 24 13 - - WSW 980,3 10 0,0
15.01.2018 15:00:00 4,4 1,0 18 10 - - WSW 980,6 10 0,0
15.01.2018 14:00:00 4,4 1,2 26 14 - - WSW 981,0 10 0,2
15.01.2018 13:00:00 5,1 1,0 22 12 - - SW 981,4 10 0,0
15.01.2018 12:00:00 5,0 1,5 13 7 - - SSW 982,2 10 0,0

tt = Température de l'air
td = dewpoint
ff = Vitesse du vent
fx = gusts
dd = Direction du vent
ppp = reduced air pressure
vv = visibility
rr = Quantités de précipitations

stations d'obs. à proximité